Year,Month,Day,Hour,Minute,Value (Times are PST for temperature in C)
2008,05,28,00,00,13.90
2008,05,28,00,01,13.90
2008,05,28,00,02,13.80
2008,05,28,00,03,13.80
2008,05,28,00,04,13.80
2008,05,28,00,05,13.70
2008,05,28,00,06,13.70
2008,05,28,00,07,13.70
2008,05,28,00,08,13.70
2008,05,28,00,09,13.60
2008,05,28,00,10,13.60
2008,05,28,00,11,13.60
2008,05,28,00,12,13.60
2008,05,28,00,13,13.50
2008,05,28,00,14,13.50
2008,05,28,00,15,13.50
2008,05,28,00,16,13.50
2008,05,28,00,17,13.50
2008,05,28,00,18,13.50
2008,05,28,00,19,13.50
2008,05,28,00,20,13.40
2008,05,28,00,21,13.40
2008,05,28,00,22,13.40
2008,05,28,00,23,13.40
2008,05,28,00,24,13.40
2008,05,28,00,25,13.40
2008,05,28,00,26,13.40
2008,05,28,00,27,13.40
2008,05,28,00,28,13.40
2008,05,28,00,29,13.40
2008,05,28,00,30,13.40
2008,05,28,00,31,13.40
2008,05,28,00,32,13.30
2008,05,28,00,33,13.30
2008,05,28,00,34,13.30
2008,05,28,00,35,13.30
2008,05,28,00,36,13.30
2008,05,28,00,37,13.30
2008,05,28,00,38,13.20
2008,05,28,00,39,13.20
2008,05,28,00,40,13.10
2008,05,28,00,41,13.10
2008,05,28,00,42,13.00
2008,05,28,00,43,13.00
2008,05,28,00,44,12.90
2008,05,28,00,45,12.90
2008,05,28,00,46,12.80
2008,05,28,00,47,12.80
2008,05,28,00,48,12.80
2008,05,28,00,49,12.80
2008,05,28,00,50,12.80
2008,05,28,00,51,12.80
2008,05,28,00,52,12.80
2008,05,28,00,53,12.70
2008,05,28,00,54,12.70
2008,05,28,00,55,12.60
2008,05,28,00,56,12.60
2008,05,28,00,57,12.60
2008,05,28,00,58,12.50
2008,05,28,00,59,12.50
2008,05,28,01,00,12.50
2008,05,28,01,01,12.40
2008,05,28,01,02,12.40
2008,05,28,01,03,12.40
2008,05,28,01,04,12.30
2008,05,28,01,05,12.30
2008,05,28,01,06,12.30
2008,05,28,01,07,12.30
2008,05,28,01,08,12.30
2008,05,28,01,09,12.30
2008,05,28,01,10,12.30
2008,05,28,01,11,12.30
2008,05,28,01,12,12.30
2008,05,28,01,13,12.30
2008,05,28,01,14,12.30
2008,05,28,01,15,12.30
2008,05,28,01,16,12.30
2008,05,28,01,17,12.30
2008,05,28,01,18,12.30
2008,05,28,01,19,12.30
2008,05,28,01,20,12.30
2008,05,28,01,21,12.30
2008,05,28,01,22,12.30
2008,05,28,01,23,12.30
2008,05,28,01,24,12.30
2008,05,28,01,25,12.30
2008,05,28,01,26,12.30
2008,05,28,01,27,12.30
2008,05,28,01,28,12.30
2008,05,28,01,29,12.30
2008,05,28,01,30,12.30
2008,05,28,01,31,12.30
2008,05,28,01,32,12.30
2008,05,28,01,33,12.30
2008,05,28,01,34,12.30
2008,05,28,01,35,12.30
2008,05,28,01,36,12.30
2008,05,28,01,37,12.30
2008,05,28,01,38,12.30
2008,05,28,01,39,12.30
2008,05,28,01,40,12.30
2008,05,28,01,41,12.30
2008,05,28,01,42,12.30
2008,05,28,01,43,12.20
2008,05,28,01,44,12.20
2008,05,28,01,45,12.20
2008,05,28,01,46,12.10
2008,05,28,01,47,12.10
2008,05,28,01,48,12.10
2008,05,28,01,49,12.00
2008,05,28,01,50,12.00
2008,05,28,01,51,11.90
2008,05,28,01,52,11.90
2008,05,28,01,53,11.90
2008,05,28,01,54,11.80
2008,05,28,01,55,11.80
2008,05,28,01,56,11.80
2008,05,28,01,57,11.80
2008,05,28,01,58,11.80
2008,05,28,01,59,11.70
2008,05,28,02,00,11.70
2008,05,28,02,01,11.70
2008,05,28,02,02,11.70
2008,05,28,02,03,11.60
2008,05,28,02,04,11.60
2008,05,28,02,05,11.60
2008,05,28,02,06,11.60
2008,05,28,02,07,11.60
2008,05,28,02,08,11.60
2008,05,28,02,09,11.60
2008,05,28,02,10,11.60
2008,05,28,02,11,11.60
2008,05,28,02,12,11.50
2008,05,28,02,13,11.40
2008,05,28,02,14,11.40
2008,05,28,02,15,11.40
2008,05,28,02,16,11.40
2008,05,28,02,17,11.40
2008,05,28,02,18,11.40
2008,05,28,02,19,11.40
2008,05,28,02,20,11.40
2008,05,28,02,21,11.40
2008,05,28,02,22,11.40
2008,05,28,02,23,11.40
2008,05,28,02,24,11.40
2008,05,28,02,25,11.40
2008,05,28,02,26,11.40
2008,05,28,02,27,11.40
2008,05,28,02,28,11.40
2008,05,28,02,29,11.40
2008,05,28,02,30,11.40
2008,05,28,02,31,11.30
2008,05,28,02,32,11.30
2008,05,28,02,33,11.30
2008,05,28,02,34,11.30
2008,05,28,02,35,11.30
2008,05,28,02,36,11.30
2008,05,28,02,37,11.30
2008,05,28,02,38,11.30
2008,05,28,02,39,11.30
2008,05,28,02,40,11.40
2008,05,28,02,41,11.40
2008,05,28,02,42,11.40
2008,05,28,02,43,11.40
2008,05,28,02,44,11.40
2008,05,28,02,45,11.40
2008,05,28,02,46,11.40
2008,05,28,02,47,11.40
2008,05,28,02,48,11.40
2008,05,28,02,49,11.40
2008,05,28,02,50,11.40
2008,05,28,02,51,11.40
2008,05,28,02,52,11.40
2008,05,28,02,53,11.40
2008,05,28,02,54,11.40
2008,05,28,02,55,11.30
2008,05,28,02,56,11.30
2008,05,28,02,57,11.30
2008,05,28,02,58,11.30
2008,05,28,02,59,11.30
2008,05,28,03,00,11.30
2008,05,28,03,01,11.30
2008,05,28,03,02,11.30
2008,05,28,03,03,11.20
2008,05,28,03,04,11.20
2008,05,28,03,05,11.20
2008,05,28,03,06,11.20
2008,05,28,03,07,11.20
2008,05,28,03,08,11.20
2008,05,28,03,09,11.10
2008,05,28,03,10,11.10
2008,05,28,03,11,11.10
2008,05,28,03,12,11.10
2008,05,28,03,13,11.10
2008,05,28,03,14,11.10
2008,05,28,03,15,11.10
2008,05,28,03,16,11.10
2008,05,28,03,17,11.10
2008,05,28,03,18,11.10
2008,05,28,03,19,11.10
2008,05,28,03,20,11.10
2008,05,28,03,21,11.10
2008,05,28,03,22,11.00
2008,05,28,03,23,10.90
2008,05,28,03,24,10.90
2008,05,28,03,25,10.90
2008,05,28,03,26,10.90
2008,05,28,03,27,10.90
2008,05,28,03,28,10.90
2008,05,28,03,29,10.90
2008,05,28,03,30,10.90
2008,05,28,03,31,10.90
2008,05,28,03,32,10.90
2008,05,28,03,33,10.90
2008,05,28,03,34,10.90
2008,05,28,03,35,10.90
2008,05,28,03,36,10.90
2008,05,28,03,37,10.80
2008,05,28,03,38,10.80
2008,05,28,03,39,10.80
2008,05,28,03,40,10.70
2008,05,28,03,41,10.70
2008,05,28,03,42,10.70
2008,05,28,03,43,10.70
2008,05,28,03,44,10.60
2008,05,28,03,45,10.60
2008,05,28,03,46,10.60
2008,05,28,03,47,10.60
2008,05,28,03,48,10.60
2008,05,28,03,49,10.60
2008,05,28,03,50,10.60
2008,05,28,03,51,10.60
2008,05,28,03,52,10.60
2008,05,28,03,53,10.60
2008,05,28,03,54,10.60
2008,05,28,03,55,10.40
2008,05,28,03,56,10.40
2008,05,28,03,57,10.40
2008,05,28,03,58,10.40
2008,05,28,03,59,10.40
2008,05,28,04,00,10.40
2008,05,28,04,01,10.40
2008,05,28,04,02,10.40
2008,05,28,04,03,10.40
2008,05,28,04,04,10.40
2008,05,28,04,05,10.40
2008,05,28,04,06,10.40
2008,05,28,04,07,10.40
2008,05,28,04,08,10.40
2008,05,28,04,09,10.40
2008,05,28,04,10,10.40
2008,05,28,04,11,10.40
2008,05,28,04,12,10.30
2008,05,28,04,13,10.30
2008,05,28,04,14,10.30
2008,05,28,04,15,10.30
2008,05,28,04,16,10.30
2008,05,28,04,17,10.30
2008,05,28,04,18,10.30
2008,05,28,04,19,10.20
2008,05,28,04,20,10.20
2008,05,28,04,21,10.20
2008,05,28,04,22,10.20
2008,05,28,04,23,10.20
2008,05,28,04,24,10.20
2008,05,28,04,25,10.20
2008,05,28,04,26,10.20
2008,05,28,04,27,10.20
2008,05,28,04,28,10.20
2008,05,28,04,29,10.30
2008,05,28,04,30,10.30
2008,05,28,04,31,10.30
2008,05,28,04,32,10.30
2008,05,28,04,33,10.30
2008,05,28,04,34,10.40
2008,05,28,04,35,10.40
2008,05,28,04,36,10.40
2008,05,28,04,37,10.40
2008,05,28,04,38,10.40
2008,05,28,04,39,10.50
2008,05,28,04,40,10.60
2008,05,28,04,41,10.60
2008,05,28,04,42,10.60
2008,05,28,04,43,10.60
2008,05,28,04,44,10.60
2008,05,28,04,45,10.60
2008,05,28,04,46,10.60
2008,05,28,04,47,10.60
2008,05,28,04,48,10.70
2008,05,28,04,49,10.70
2008,05,28,04,50,10.70
2008,05,28,04,51,10.70
2008,05,28,04,52,10.70
2008,05,28,04,53,10.70
2008,05,28,04,54,10.80
2008,05,28,04,55,10.80
2008,05,28,04,56,10.80
2008,05,28,04,57,10.80
2008,05,28,04,58,10.90
2008,05,28,04,59,10.90
2008,05,28,05,00,10.90
2008,05,28,05,01,10.90
2008,05,28,05,02,10.90
2008,05,28,05,03,10.90
2008,05,28,05,04,10.90
2008,05,28,05,05,11.00
2008,05,28,05,06,11.10
2008,05,28,05,07,11.10
2008,05,28,05,08,11.10
2008,05,28,05,09,11.10
2008,05,28,05,10,11.10
2008,05,28,05,11,11.10
2008,05,28,05,12,11.10
2008,05,28,05,13,11.20
2008,05,28,05,14,11.20
2008,05,28,05,15,11.20
2008,05,28,05,16,11.30
2008,05,28,05,17,11.30
2008,05,28,05,18,11.40
2008,05,28,05,19,11.40
2008,05,28,05,20,11.40
2008,05,28,05,21,11.40
2008,05,28,05,22,11.40
2008,05,28,05,23,11.60
2008,05,28,05,24,11.60
2008,05,28,05,25,11.60
2008,05,28,05,26,11.60
2008,05,28,05,27,11.60
2008,05,28,05,28,11.60
2008,05,28,05,29,11.60
2008,05,28,05,30,11.60
2008,05,28,05,31,11.60
2008,05,28,05,32,11.70
2008,05,28,05,33,11.70
2008,05,28,05,34,11.70
2008,05,28,05,35,11.70
2008,05,28,05,36,11.70
2008,05,28,05,37,11.70
2008,05,28,05,38,11.80
2008,05,28,05,39,11.80
2008,05,28,05,40,11.80
2008,05,28,05,41,11.80
2008,05,28,05,42,11.80
2008,05,28,05,43,11.80
2008,05,28,05,44,11.80
2008,05,28,05,45,11.80
2008,05,28,05,46,11.80
2008,05,28,05,47,11.80
2008,05,28,05,48,11.80
2008,05,28,05,49,11.80
2008,05,28,05,50,11.80
2008,05,28,05,51,11.80
2008,05,28,05,52,11.80
2008,05,28,05,53,11.90
2008,05,28,05,54,11.90
2008,05,28,05,55,11.90
2008,05,28,05,56,11.90
2008,05,28,05,57,11.90
2008,05,28,05,58,12.00
2008,05,28,05,59,12.00
2008,05,28,06,00,12.00
2008,05,28,06,01,12.00
2008,05,28,06,02,12.10
2008,05,28,06,03,12.10
2008,05,28,06,04,12.10
2008,05,28,06,05,12.10
2008,05,28,06,06,12.20
2008,05,28,06,07,12.20
2008,05,28,06,08,12.20
2008,05,28,06,09,12.20
2008,05,28,06,10,12.20
2008,05,28,06,11,12.30
2008,05,28,06,12,12.30
2008,05,28,06,13,12.30
2008,05,28,06,14,12.30
2008,05,28,06,15,12.30
2008,05,28,06,16,12.30
2008,05,28,06,17,12.30
2008,05,28,06,18,12.30
2008,05,28,06,19,12.40
2008,05,28,06,20,12.40
2008,05,28,06,21,12.40
2008,05,28,06,22,12.40
2008,05,28,06,23,12.40
2008,05,28,06,24,12.40
2008,05,28,06,25,12.50
2008,05,28,06,26,12.50
2008,05,28,06,27,12.50
2008,05,28,06,28,12.50
2008,05,28,06,29,12.50
2008,05,28,06,30,12.60
2008,05,28,06,31,12.60
2008,05,28,06,32,12.60
2008,05,28,06,33,12.60
2008,05,28,06,34,12.60
2008,05,28,06,35,12.60
2008,05,28,06,36,12.60
2008,05,28,06,37,12.60
2008,05,28,06,38,12.70
2008,05,28,06,39,12.70
2008,05,28,06,40,12.70
2008,05,28,06,41,12.70
2008,05,28,06,42,12.70
2008,05,28,06,43,12.70
2008,05,28,06,44,12.80
2008,05,28,06,45,12.80
2008,05,28,06,46,12.80
2008,05,28,06,47,12.80
2008,05,28,06,48,12.80
2008,05,28,06,49,12.80
2008,05,28,06,50,12.80
2008,05,28,06,51,12.80
2008,05,28,06,52,12.80
2008,05,28,06,53,12.80
2008,05,28,06,54,12.80
2008,05,28,06,55,12.80
2008,05,28,06,56,12.80
2008,05,28,06,57,12.80
2008,05,28,06,58,12.80
2008,05,28,06,59,12.80
2008,05,28,07,00,12.80
2008,05,28,07,01,12.80
2008,05,28,07,02,12.80
2008,05,28,07,03,12.80
2008,05,28,07,04,12.80
2008,05,28,07,05,12.80
2008,05,28,07,06,12.80
2008,05,28,07,07,12.80
2008,05,28,07,08,12.80
2008,05,28,07,09,12.70
2008,05,28,07,10,12.70
2008,05,28,07,11,12.70
2008,05,28,07,12,12.70
2008,05,28,07,13,12.70
2008,05,28,07,14,12.60
2008,05,28,07,15,12.60
2008,05,28,07,16,12.60
2008,05,28,07,17,12.60
2008,05,28,07,18,12.70
2008,05,28,07,19,12.70
2008,05,28,07,20,12.70
2008,05,28,07,21,12.70
2008,05,28,07,22,12.80
2008,05,28,07,23,12.80
2008,05,28,07,24,12.80
2008,05,28,07,25,12.80
2008,05,28,07,26,12.80
2008,05,28,07,27,12.80
2008,05,28,07,28,12.80
2008,05,28,07,29,12.80
2008,05,28,07,30,12.80
2008,05,28,07,31,12.90
2008,05,28,07,32,12.90
2008,05,28,07,33,12.90
2008,05,28,07,34,13.00
2008,05,28,07,35,13.00
2008,05,28,07,36,13.00
2008,05,28,07,37,13.10
2008,05,28,07,38,13.10
2008,05,28,07,39,13.10
2008,05,28,07,40,13.10
2008,05,28,07,41,13.20
2008,05,28,07,42,13.20
2008,05,28,07,43,13.20
2008,05,28,07,44,13.30
2008,05,28,07,45,13.30
2008,05,28,07,46,13.30
2008,05,28,07,47,13.30
2008,05,28,07,48,13.40
2008,05,28,07,49,13.40
2008,05,28,07,50,13.40
2008,05,28,07,51,13.40
2008,05,28,07,52,13.40
2008,05,28,07,53,13.40
2008,05,28,07,54,13.50
2008,05,28,07,55,13.50
2008,05,28,07,56,13.50
2008,05,28,07,57,13.60
2008,05,28,07,58,13.60
2008,05,28,07,59,13.60
2008,05,28,08,00,13.60
2008,05,28,08,01,13.60
2008,05,28,08,02,13.60
2008,05,28,08,03,13.50
2008,05,28,08,04,13.50
2008,05,28,08,05,13.50
2008,05,28,08,06,13.50
2008,05,28,08,07,13.50
2008,05,28,08,08,13.50
2008,05,28,08,09,13.50
2008,05,28,08,10,13.50
2008,05,28,08,11,13.50
2008,05,28,08,12,13.50
2008,05,28,08,13,13.50
2008,05,28,08,14,13.50
2008,05,28,08,15,13.50
2008,05,28,08,16,13.60
2008,05,28,08,17,13.60
2008,05,28,08,18,13.60
2008,05,28,08,19,13.70
2008,05,28,08,20,13.70
2008,05,28,08,21,13.80
2008,05,28,08,22,13.80
2008,05,28,08,23,13.90
2008,05,28,08,24,14.00
2008,05,28,08,25,14.00
2008,05,28,08,26,14.10
2008,05,28,08,27,14.20
2008,05,28,08,28,14.20
2008,05,28,08,29,14.40
2008,05,28,08,30,14.50
2008,05,28,08,31,14.60
2008,05,28,08,32,14.70
2008,05,28,08,33,14.80
2008,05,28,08,34,15.00
2008,05,28,08,35,15.10
2008,05,28,08,36,15.20
2008,05,28,08,37,15.30
2008,05,28,08,38,15.50
2008,05,28,08,39,15.60
2008,05,28,08,40,15.70
2008,05,28,08,41,15.80
2008,05,28,08,42,15.90
2008,05,28,08,43,15.90
2008,05,28,08,44,15.90
2008,05,28,08,45,15.80
2008,05,28,08,46,15.60
2008,05,28,08,47,15.50
2008,05,28,08,48,15.40
2008,05,28,08,49,15.40
2008,05,28,08,50,15.40
2008,05,28,08,51,15.40
2008,05,28,08,52,15.30
2008,05,28,08,53,15.30
2008,05,28,08,54,15.20
2008,05,28,08,55,15.10
2008,05,28,08,56,15.10
2008,05,28,08,57,15.10
2008,05,28,08,58,15.00
2008,05,28,08,59,15.00
2008,05,28,09,00,15.00
2008,05,28,09,01,14.90
2008,05,28,09,02,15.00
2008,05,28,09,03,15.00
2008,05,28,09,04,15.00
2008,05,28,09,05,15.00
2008,05,28,09,06,15.00
2008,05,28,09,07,15.00
2008,05,28,09,08,15.00
2008,05,28,09,09,15.00
2008,05,28,09,10,15.00
2008,05,28,09,11,15.00
2008,05,28,09,12,15.00
2008,05,28,09,13,15.00
2008,05,28,09,14,15.10
2008,05,28,09,15,15.10
2008,05,28,09,16,15.10
2008,05,28,09,17,15.20
2008,05,28,09,18,15.30
2008,05,28,09,19,15.30
2008,05,28,09,20,15.40
2008,05,28,09,21,15.50
2008,05,28,09,22,15.60
2008,05,28,09,23,15.70
2008,05,28,09,24,15.80
2008,05,28,09,25,15.80
2008,05,28,09,26,15.90
2008,05,28,09,27,15.90
2008,05,28,09,28,16.00
2008,05,28,09,29,16.10
2008,05,28,09,30,16.10
2008,05,28,09,31,16.20
2008,05,28,09,32,16.30
2008,05,28,09,33,16.40
2008,05,28,09,34,16.40
2008,05,28,09,35,16.40
2008,05,28,09,36,16.40
2008,05,28,09,37,16.40
2008,05,28,09,38,16.50
2008,05,28,09,39,16.60
2008,05,28,09,40,16.70
2008,05,28,09,41,16.70
2008,05,28,09,42,16.70
2008,05,28,09,43,16.70
2008,05,28,09,44,16.70
2008,05,28,09,45,16.60
2008,05,28,09,46,16.60
2008,05,28,09,47,16.60
2008,05,28,09,48,16.70
2008,05,28,09,49,16.70
2008,05,28,09,50,16.60
2008,05,28,09,51,16.50
2008,05,28,09,52,16.40
2008,05,28,09,53,16.40
2008,05,28,09,54,16.40
2008,05,28,09,55,16.50
2008,05,28,09,56,16.50
2008,05,28,09,57,16.40
2008,05,28,09,58,16.40
2008,05,28,09,59,16.50
2008,05,28,10,00,16.60
2008,05,28,10,01,16.40
2008,05,28,10,02,16.40
2008,05,28,10,03,16.40
2008,05,28,10,04,16.30
2008,05,28,10,05,16.40
2008,05,28,10,06,16.40
2008,05,28,10,07,16.40
2008,05,28,10,08,16.40
2008,05,28,10,09,16.50
2008,05,28,10,10,16.60
2008,05,28,10,11,16.70
2008,05,28,10,12,16.80
2008,05,28,10,13,16.90
2008,05,28,10,14,17.00
2008,05,28,10,15,17.10
2008,05,28,10,16,17.10
2008,05,28,10,17,17.20
2008,05,28,10,18,17.30
2008,05,28,10,19,17.20
2008,05,28,10,20,17.20
2008,05,28,10,21,17.10
2008,05,28,10,22,17.20
2008,05,28,10,23,17.30
2008,05,28,10,24,17.30
2008,05,28,10,25,17.40
2008,05,28,10,26,17.50
2008,05,28,10,27,17.50
2008,05,28,10,28,17.60
2008,05,28,10,29,17.80
2008,05,28,10,30,17.80
2008,05,28,10,31,17.90
2008,05,28,10,32,18.00
2008,05,28,10,33,18.10
2008,05,28,10,34,18.20
2008,05,28,10,35,18.30
2008,05,28,10,36,18.40
2008,05,28,10,37,18.50
2008,05,28,10,38,18.60
2008,05,28,10,39,18.70
2008,05,28,10,40,18.80
2008,05,28,10,41,18.90
2008,05,28,10,42,18.90
2008,05,28,10,43,18.90
2008,05,28,10,44,18.90
2008,05,28,10,45,18.80
2008,05,28,10,46,18.80
2008,05,28,10,47,18.70
2008,05,28,10,48,18.60
2008,05,28,10,49,18.60
2008,05,28,10,50,18.70
2008,05,28,10,51,18.70
2008,05,28,10,52,18.80
2008,05,28,10,53,18.90
2008,05,28,10,54,18.70
2008,05,28,10,55,18.60
2008,05,28,10,56,18.60
2008,05,28,10,57,18.50
2008,05,28,10,58,18.50
2008,05,28,10,59,18.50
2008,05,28,11,00,18.40
2008,05,28,11,01,18.40
2008,05,28,11,02,18.30
2008,05,28,11,03,18.30
2008,05,28,11,04,18.30
2008,05,28,11,05,18.20
2008,05,28,11,06,18.10
2008,05,28,11,07,18.00
2008,05,28,11,08,17.90
2008,05,28,11,09,17.70
2008,05,28,11,10,17.60
2008,05,28,11,11,17.60
2008,05,28,11,12,17.50
2008,05,28,11,13,17.50
2008,05,28,11,14,17.50
2008,05,28,11,15,17.50
2008,05,28,11,16,17.60
2008,05,28,11,17,17.60
2008,05,28,11,18,17.70
2008,05,28,11,19,17.70
2008,05,28,11,20,17.70
2008,05,28,11,21,17.80
2008,05,28,11,22,17.90
2008,05,28,11,23,17.90
2008,05,28,11,24,17.90
2008,05,28,11,25,17.90
2008,05,28,11,26,18.10
2008,05,28,11,27,18.20
2008,05,28,11,28,18.30
2008,05,28,11,29,18.20
2008,05,28,11,30,18.30
2008,05,28,11,31,18.40
2008,05,28,11,32,18.50
2008,05,28,11,33,18.60
2008,05,28,11,34,18.60
2008,05,28,11,35,18.60
2008,05,28,11,36,18.80
2008,05,28,11,37,18.80
2008,05,28,11,38,18.80
2008,05,28,11,39,18.70
2008,05,28,11,40,18.70
2008,05,28,11,41,18.70
2008,05,28,11,42,18.70
2008,05,28,11,43,18.60
2008,05,28,11,44,18.60
2008,05,28,11,45,18.60
2008,05,28,11,46,18.60
2008,05,28,11,47,18.70
2008,05,28,11,48,18.80
2008,05,28,11,49,18.80
2008,05,28,11,50,18.90
2008,05,28,11,51,19.10
2008,05,28,11,52,19.00
2008,05,28,11,53,18.90
2008,05,28,11,54,19.10
2008,05,28,11,55,19.10
2008,05,28,11,56,19.10
2008,05,28,11,57,19.10
2008,05,28,11,58,19.00
2008,05,28,11,59,18.90
2008,05,28,12,00,18.90
2008,05,28,12,01,19.10
2008,05,28,12,02,19.10
2008,05,28,12,03,19.10
2008,05,28,12,04,19.10
2008,05,28,12,05,18.90
2008,05,28,12,06,18.80
2008,05,28,12,07,18.70
2008,05,28,12,08,18.60
2008,05,28,12,09,18.50
2008,05,28,12,10,18.50
2008,05,28,12,11,18.40
2008,05,28,12,12,18.20
2008,05,28,12,13,18.10
2008,05,28,12,14,18.10
2008,05,28,12,15,18.10
2008,05,28,12,16,18.10
2008,05,28,12,17,18.10
2008,05,28,12,18,18.20
2008,05,28,12,19,18.20
2008,05,28,12,20,18.20
2008,05,28,12,21,18.10
2008,05,28,12,22,18.10
2008,05,28,12,23,18.10
2008,05,28,12,24,18.20
2008,05,28,12,25,18.20
2008,05,28,12,26,18.10
2008,05,28,12,27,18.10
2008,05,28,12,28,18.10
2008,05,28,12,29,18.00
2008,05,28,12,30,18.10
2008,05,28,12,31,18.00
2008,05,28,12,32,17.90
2008,05,28,12,33,17.90
2008,05,28,12,34,17.90
2008,05,28,12,35,17.80
2008,05,28,12,36,17.70
2008,05,28,12,37,17.70
2008,05,28,12,38,17.70
2008,05,28,12,39,17.60
2008,05,28,12,40,17.50
2008,05,28,12,41,17.40
2008,05,28,12,42,17.40
2008,05,28,12,43,17.50
2008,05,28,12,44,17.50
2008,05,28,12,45,17.60
2008,05,28,12,46,17.60
2008,05,28,12,47,17.70
2008,05,28,12,48,17.70
2008,05,28,12,49,17.80
2008,05,28,12,50,17.90
2008,05,28,12,51,18.10
2008,05,28,12,52,18.20
2008,05,28,12,53,18.20
2008,05,28,12,54,18.30
2008,05,28,12,55,18.30
2008,05,28,12,56,18.30
2008,05,28,12,57,18.30
2008,05,28,12,58,18.40
2008,05,28,12,59,18.50
2008,05,28,13,00,18.50
2008,05,28,13,01,18.50
2008,05,28,13,02,18.60
2008,05,28,13,03,18.50
2008,05,28,13,04,18.40
2008,05,28,13,05,18.30
2008,05,28,13,06,18.20
2008,05,28,13,07,18.10
2008,05,28,13,08,18.10
2008,05,28,13,09,18.00
2008,05,28,13,10,17.90
2008,05,28,13,11,17.90
2008,05,28,13,12,17.90
2008,05,28,13,13,17.90
2008,05,28,13,14,17.90
2008,05,28,13,15,17.90
2008,05,28,13,16,17.90
2008,05,28,13,17,18.00
2008,05,28,13,18,18.10
2008,05,28,13,19,18.10
2008,05,28,13,20,18.20
2008,05,28,13,21,18.20
2008,05,28,13,22,18.30
2008,05,28,13,23,18.30
2008,05,28,13,24,18.30
2008,05,28,13,25,18.30
2008,05,28,13,26,18.40
2008,05,28,13,27,18.50
2008,05,28,13,28,18.60
2008,05,28,13,29,18.80
2008,05,28,13,30,18.90
2008,05,28,13,31,19.10
2008,05,28,13,32,19.10
2008,05,28,13,33,19.10
2008,05,28,13,34,19.10
2008,05,28,13,35,19.20
2008,05,28,13,36,19.20
2008,05,28,13,37,19.10
2008,05,28,13,38,19.20
2008,05,28,13,39,19.20
2008,05,28,13,40,19.20
2008,05,28,13,41,19.30
2008,05,28,13,42,19.30
2008,05,28,13,43,19.30
2008,05,28,13,44,19.30
2008,05,28,13,45,19.20
2008,05,28,13,46,19.20
2008,05,28,13,47,19.20
2008,05,28,13,48,19.20
2008,05,28,13,49,19.30
2008,05,28,13,50,19.40
2008,05,28,13,51,19.40
2008,05,28,13,52,19.40
2008,05,28,13,53,19.50
2008,05,28,13,54,19.50
2008,05,28,13,55,19.60
2008,05,28,13,56,19.80
2008,05,28,13,57,19.80
2008,05,28,13,58,19.70
2008,05,28,13,59,19.70
2008,05,28,14,00,19.50
2008,05,28,14,01,19.30
2008,05,28,14,02,19.20
2008,05,28,14,03,19.10
2008,05,28,14,04,18.90
2008,05,28,14,05,18.80
2008,05,28,14,06,18.70
2008,05,28,14,07,18.70
2008,05,28,14,08,18.70
2008,05,28,14,09,18.60
2008,05,28,14,10,18.60
2008,05,28,14,11,18.60
2008,05,28,14,12,18.60
2008,05,28,14,13,18.60
2008,05,28,14,14,18.60
2008,05,28,14,15,18.60
2008,05,28,14,16,18.60
2008,05,28,14,17,18.60
2008,05,28,14,18,18.70
2008,05,28,14,19,18.80
2008,05,28,14,20,18.80
2008,05,28,14,21,18.80
2008,05,28,14,22,18.70
2008,05,28,14,23,18.70
2008,05,28,14,24,18.70
2008,05,28,14,25,18.60
2008,05,28,14,26,18.50
2008,05,28,14,27,18.40
2008,05,28,14,28,18.40
2008,05,28,14,29,18.30
2008,05,28,14,30,18.30
2008,05,28,14,31,18.40
2008,05,28,14,32,18.50
2008,05,28,14,33,18.50
2008,05,28,14,34,18.50
2008,05,28,14,35,18.50
2008,05,28,14,36,18.50
2008,05,28,14,37,18.50
2008,05,28,14,38,18.50
2008,05,28,14,39,18.40
2008,05,28,14,40,18.40
2008,05,28,14,41,18.40
2008,05,28,14,42,18.40
2008,05,28,14,43,18.30
2008,05,28,14,44,18.40
2008,05,28,14,45,18.40
2008,05,28,14,46,18.40
2008,05,28,14,47,18.40
2008,05,28,14,48,18.40
2008,05,28,14,49,18.50
2008,05,28,14,50,18.50
2008,05,28,14,51,18.70
2008,05,28,14,52,18.80
2008,05,28,14,53,18.90
2008,05,28,14,54,18.90
2008,05,28,14,55,19.10
2008,05,28,14,56,19.20
2008,05,28,14,57,19.30
2008,05,28,14,58,19.30
2008,05,28,14,59,19.40
2008,05,28,15,00,19.40
2008,05,28,15,01,19.40
2008,05,28,15,02,19.40
2008,05,28,15,03,19.40
2008,05,28,15,04,19.40
2008,05,28,15,05,19.40
2008,05,28,15,06,19.40
2008,05,28,15,07,19.40
2008,05,28,15,08,19.40
2008,05,28,15,09,19.40
2008,05,28,15,10,19.50
2008,05,28,15,11,19.60
2008,05,28,15,12,19.60
2008,05,28,15,13,19.60
2008,05,28,15,14,19.60
2008,05,28,15,15,19.60
2008,05,28,15,16,19.70
2008,05,28,15,17,19.80
2008,05,28,15,18,19.80
2008,05,28,15,19,19.80
2008,05,28,15,20,19.70
2008,05,28,15,21,19.60
2008,05,28,15,22,19.50
2008,05,28,15,23,19.40
2008,05,28,15,24,19.30
2008,05,28,15,25,19.20
2008,05,28,15,26,19.20
2008,05,28,15,27,19.10
2008,05,28,15,28,19.10
2008,05,28,15,29,19.10
2008,05,28,15,30,19.10
2008,05,28,15,31,19.10
2008,05,28,15,32,19.10
2008,05,28,15,33,19.10
2008,05,28,15,34,19.10
2008,05,28,15,35,19.10
2008,05,28,15,36,19.00
2008,05,28,15,37,18.90
2008,05,28,15,38,18.90
2008,05,28,15,39,18.90
2008,05,28,15,40,18.90
2008,05,28,15,41,18.90
2008,05,28,15,42,18.90
2008,05,28,15,43,18.90
2008,05,28,15,44,18.90
2008,05,28,15,45,18.90
2008,05,28,15,46,18.90
2008,05,28,15,47,18.90
2008,05,28,15,48,18.90
2008,05,28,15,49,18.90
2008,05,28,15,50,18.80
2008,05,28,15,51,18.90
2008,05,28,15,52,18.90
2008,05,28,15,53,18.80
2008,05,28,15,54,18.90
2008,05,28,15,55,18.90
2008,05,28,15,56,18.80
2008,05,28,15,57,18.70
2008,05,28,15,58,18.80
2008,05,28,15,59,18.70
2008,05,28,16,00,18.80
2008,05,28,16,01,18.80
2008,05,28,16,02,18.80
2008,05,28,16,03,18.80
2008,05,28,16,04,18.70
2008,05,28,16,05,18.60
2008,05,28,16,06,18.50
2008,05,28,16,07,18.40
2008,05,28,16,08,18.30
2008,05,28,16,09,18.20
2008,05,28,16,10,18.10
2008,05,28,16,11,18.10
2008,05,28,16,12,18.10
2008,05,28,16,13,17.90
2008,05,28,16,14,17.90
2008,05,28,16,15,17.90
2008,05,28,16,16,18.10
2008,05,28,16,17,18.10
2008,05,28,16,18,18.20
2008,05,28,16,19,18.30
2008,05,28,16,20,18.40
2008,05,28,16,21,18.60
2008,05,28,16,22,18.70
2008,05,28,16,23,18.90
2008,05,28,16,24,19.00
2008,05,28,16,25,19.10
2008,05,28,16,26,19.10
2008,05,28,16,27,19.30
2008,05,28,16,28,19.30
2008,05,28,16,29,19.40
2008,05,28,16,30,19.40
2008,05,28,16,31,19.40
2008,05,28,16,32,19.40
2008,05,28,16,33,19.30
2008,05,28,16,34,19.30
2008,05,28,16,35,19.40
2008,05,28,16,36,19.50
2008,05,28,16,37,19.50
2008,05,28,16,38,19.40
2008,05,28,16,39,19.30
2008,05,28,16,40,19.30
2008,05,28,16,41,19.30
2008,05,28,16,42,19.30
2008,05,28,16,43,19.20
2008,05,28,16,44,19.10
2008,05,28,16,45,19.10
2008,05,28,16,46,18.90
2008,05,28,16,47,18.90
2008,05,28,16,48,18.80
2008,05,28,16,49,18.60
2008,05,28,16,50,18.50
2008,05,28,16,51,18.40
2008,05,28,16,52,18.30
2008,05,28,16,53,18.30
2008,05,28,16,54,18.20
2008,05,28,16,55,18.20
2008,05,28,16,56,18.10
2008,05,28,16,57,18.00
2008,05,28,16,58,17.90
2008,05,28,16,59,17.90
2008,05,28,17,00,17.90
2008,05,28,17,01,17.90
2008,05,28,17,02,17.90
2008,05,28,17,03,17.90
2008,05,28,17,04,17.90
2008,05,28,17,05,17.90
2008,05,28,17,06,17.90
2008,05,28,17,07,17.90
2008,05,28,17,08,17.90
2008,05,28,17,09,17.90
2008,05,28,17,10,17.90
2008,05,28,17,11,18.00
2008,05,28,17,12,18.20
2008,05,28,17,13,18.30
2008,05,28,17,14,18.50
2008,05,28,17,15,18.50
2008,05,28,17,16,18.70
2008,05,28,17,17,18.80
2008,05,28,17,18,18.90
2008,05,28,17,19,18.80